User: anonymous   Login
Location: Unspecified
(0.0000°N, 0.0000°E)
Time: 09:00:48
(UTC+00:00)
Language:

MERIDIAN 4 - Orbit

View from above orbital plane
View from above orbital plane
View from above satellite
View from above satellite

Ground track
Ground track

The orbit data is extracted from the following two-line orbital elements,

1 37398U 11018A   24103.77354380 -.00000090  00000-0  00000-0 0  9998
2 37398  62.1386 194.0238 7191116 257.8028  20.2626  2.00537672 94804
Epoch (UTC): 12 April 2024 18:33:54
Eccentricity: 0.7191116
inclination: 62.1386°
perigee height: 1083 km
apogee height: 39285 km
right ascension of ascending node: 194.0238°
argument of perigee: 257.8028°
revolutions per day: 2.00537672
mean anomaly at epoch: 20.2626°
orbit number at epoch: 9480

The dashed part of the orbit path shows where the satellite is in the earth's shadow,  

DLR